Aviation Digital Data Service (ADDS)

Output produced by METARs form (0214 UTC 17 August 2018)
found at http://www.aviationweather.gov/adds/metars/
 
LECO 170200Z AUTO 02005KT 340V060 CAVOK 17/12 Q1023
TAF LECO 162000Z 1621/1721 36009KT 9999 SCT045 TX23/1715Z TN16/1706Z 
     PROB40 
     TEMPO 1621/1706 3000 -RADZ BR BKN010 
     PROB40 
     TEMPO 1710/1721 01015G25KT
       
LEAB 170200Z 23003KT CAVOK 20/15 Q1018 NOSIG
TAF LEAB 162300Z 1700/1709 VRB05KT CAVOK
       
LEAL 170200Z 29004KT 9999 FEW022 23/19 Q1015 NOSIG
TAF LEAL 162300Z 1700/1724 29006KT 9999 SCT025 TX29/1712Z TN22/1705Z 
     BECMG 1708/1710 09010KT 
     BECMG 1718/1721 32004KT 
     PROB40 
     TEMPO 1700/1724 4000 TSRA FEW020CB SCT025 
     PROB30 
     TEMPO 1700/1722 3000 +TSRA SCT020CB BKN025
       
LEAM 170200Z AUTO 12003KT 9999 NCD 24/22 Q1015
TAF AMD LEAM 162232Z 1622/1721 23005KT CAVOK TX28/1714Z TN22/1706Z 
     PROB40 
     TEMPO 1712/1720 SHRA FEW040TCU FEW045CB 
     PROB40 
     TEMPO 1712/1718 33015G25KT
       
LEAS 170200Z AUTO 02003KT 300V100 7000 1800W BKN019/// BKN026/// OVC033/// 18/16 Q1022
TAF LEAS 162000Z 1621/1721 36006KT 9999 FEW015 BKN040 TX21/1715Z TN18/1705Z 
     PROB40 
     TEMPO 1621/1709 3000 -RADZ BR BKN010 
     PROB40 
     TEMPO 1621/1703 1400 RADZ BKN004 
     TEMPO 1711/1720 06010KT
       
LEMD 170200Z 36003KT 330V030 CAVOK 22/13 Q1017 NOSIG
TAF LEMD 162300Z 1700/1806 VRB05KT CAVOK TX32/1715Z TN16/1806Z 
     TEMPO 1702/1709 02010KT 
     PROB40 
     TEMPO 1712/1718 FEW040TCU 
     BECMG 1719/1721 04010KT
       
LEBL 170200Z 33007KT 9999 FEW020 24/18 Q1015 NOSIG
TAF LEBL 162300Z 1700/1724 34006KT 9999 SCT025 TX28/1712Z TN21/1705Z 
     BECMG 1707/1709 18010KT 
     BECMG 1717/1719 33007KT 
     TEMPO 1700/1724 4000 TSRA SCT020CB BKN025 
     PROB30 
     TEMPO 1700/1724 VRB12G24KT 3000 +TSRA SCT020CB BKN025
       
LEBB 170200Z AUTO VRB02KT 7000 -RA SCT026/// BKN032/// BKN038/// 19/19 Q1020
TAF LEBB 162300Z 1700/1724 VRB04KT 9999 FEW015 BKN030 TX23/1714Z TN17/1705Z 
     PROB40 
     TEMPO 1700/1709 3000 RADZ BR BKN010 
     BECMG 1708/1712 34008KT
       
LEBG 170200Z AUTO 02011KT 9999 OVC014/// 15/12 Q1022
TAF LEBG 161700Z 1618/1703 03012KT 9999 FEW040 
     TEMPO 1618/1621 03018G28KT 
     PROB30 
     TEMPO 1621/1703 BKN009
       
LEBA 170200Z AUTO 21004KT 170V260 CAVOK 22/15 Q1016
TAF LEBA 161700Z 1618/1703 24009KT CAVOK
       
TAF LEVS 161700Z 1618/1703 VRB05KT 9999 FEW045 
     TEMPO 1618/1620 FEW040TCU 
     PROB30 
     TEMPO 1618/1620 VRB15G25KT TS SHRA FEW040CB 
     PROB30 
     TEMPO 1620/1701 14010KT
       
GCFV 170200Z AUTO 36016KT 9999 BKN035/// 23/17 Q1017
TAF GCFV 162000Z 1621/1721 01015KT 9999 BKN025 TX25/1714Z TN22/1705Z
       
TAF LEGT 161700Z 1618/1703 VRB05KT 9999 FEW045 
     TEMPO 1618/1620 FEW040TCU 
     PROB30 
     TEMPO 1618/1620 VRB15G25KT TS SHRA FEW040CB 
     PROB30 
     TEMPO 1620/1701 14010KT
       
LEGE 170200Z 00000KT 9999 SCT060 20/19 Q1015
TAF LEGE 162300Z 1700/1724 VRB03KT 9999 SCT040 TX28/1713Z TN19/1705Z 
     BECMG 1709/1711 18010KT 
     TEMPO 1713/1717 32007KT 
     BECMG 1717/1719 VRB05KT 
     PROB30 
     TEMPO 1700/1711 FEW025CB SCT030 
     PROB40 
     TEMPO 1711/1718 3000 +TSRA SCT020CB BKN025
       
GCLP 170200Z 34018KT 9999 BKN030 22/17 Q1018 NOSIG
TAF AMD GCLP 162133Z 1621/1721 01020KT 9999 BKN030 TX26/1714Z TN20/1705Z 
     PROB40 
     TEMPO 1621/1721 01020G30KT
       
LEGR 170200Z AUTO 20004KT CAVOK 19/16 Q1018
TAF AMD LEGR 162232Z 1622/1721 VRB03KT CAVOK TX33/1713Z TN19/1706Z 
     PROB40 
     TEMPO 1712/1720 TSRA FEW040TCU FEW045CB 
     PROB40 
     TEMPO 1712/1718 06015G25KT
       
GCHI 170200Z AUTO 35017KT 9999 ////// 22/18 Q1020
TAF GCHI 162000Z 1621/1721 35015KT 9999 FEW020 TX25/1714Z TN22/1705Z 
     PROB30 
     TEMPO 1621/1718 35015G25KT
       
LEIB 170200Z 14003KT 9999 FEW025 25/20 Q1015 NOSIG
TAF LEIB 162000Z 1621/1721 VRB04KT 9999 FEW020 SCT030 TX29/1712Z TN22/1705Z 
     TEMPO 1621/1721 SCT020TCU BKN040 
     PROB40 
     TEMPO 1700/1715 4000 TSRA SCT020CB BKN040
       
LEAB 170200Z 23003KT CAVOK 20/15 Q1018 NOSIG
TAF LEAB 162300Z 1700/1709 VRB05KT CAVOK
       
LEAL 170200Z 29004KT 9999 FEW022 23/19 Q1015 NOSIG
TAF LEAL 162300Z 1700/1724 29006KT 9999 SCT025 TX29/1712Z TN22/1705Z 
     BECMG 1708/1710 09010KT 
     BECMG 1718/1721 32004KT 
     PROB40 
     TEMPO 1700/1724 4000 TSRA FEW020CB SCT025 
     PROB30 
     TEMPO 1700/1722 3000 +TSRA SCT020CB BKN025
       
LEAM 170200Z AUTO 12003KT 9999 NCD 24/22 Q1015
TAF AMD LEAM 162232Z 1622/1721 23005KT CAVOK TX28/1714Z TN22/1706Z 
     PROB40 
     TEMPO 1712/1720 SHRA FEW040TCU FEW045CB 
     PROB40 
     TEMPO 1712/1718 33015G25KT
       
LEAO 162100Z 20002KT 9999 FEW040 21/13 Q1017
TAF LEAO 161700Z 1618/1703 VRB05KT 9999 FEW040 
     TEMPO 1618/1620 FEW040TCU 
     PROB40 
     TEMPO 1618/1620 VRB15G25KT TS SHRA SCT040CB
       
LEAS 170200Z AUTO 02003KT 300V100 7000 1800W BKN019/// BKN026/// OVC033/// 18/16 Q1022
TAF LEAS 162000Z 1621/1721 36006KT 9999 FEW015 BKN040 TX21/1715Z TN18/1705Z 
     PROB40 
     TEMPO 1621/1709 3000 -RADZ BR BKN010 
     PROB40 
     TEMPO 1621/1703 1400 RADZ BKN004 
     TEMPO 1711/1720 06010KT
       
LEBA 170200Z AUTO 21004KT 170V260 CAVOK 22/15 Q1016
TAF LEBA 161700Z 1618/1703 24009KT CAVOK
       
LEBB 170200Z AUTO VRB02KT 7000 -RA SCT026/// BKN032/// BKN038/// 19/19 Q1020
TAF LEBB 162300Z 1700/1724 VRB04KT 9999 FEW015 BKN030 TX23/1714Z TN17/1705Z 
     PROB40 
     TEMPO 1700/1709 3000 RADZ BR BKN010 
     BECMG 1708/1712 34008KT
       
LEBG 170200Z AUTO 02011KT 9999 OVC014/// 15/12 Q1022
TAF LEBG 161700Z 1618/1703 03012KT 9999 FEW040 
     TEMPO 1618/1621 03018G28KT 
     PROB30 
     TEMPO 1621/1703 BKN009
       
LEBL 170200Z 33007KT 9999 FEW020 24/18 Q1015 NOSIG
TAF LEBL 162300Z 1700/1724 34006KT 9999 SCT025 TX28/1712Z TN21/1705Z 
     BECMG 1707/1709 18010KT 
     BECMG 1717/1719 33007KT 
     TEMPO 1700/1724 4000 TSRA SCT020CB BKN025 
     PROB30 
     TEMPO 1700/1724 VRB12G24KT 3000 +TSRA SCT020CB BKN025
       
LEBR 170200Z AUTO 31014KT 9999 BKN065 20/14 Q1019
LEBT 170200Z AUTO 35002KT 9999 SCT044 24/20 Q1016
TAF LEBZ 162300Z 1700/1724 27005KT CAVOK TX35/1716Z TN19/1706Z
       
LECH 170200Z AUTO 01007KT 330V050 CAVOK 22/15 Q1017
LECO 170200Z AUTO 02005KT 340V060 CAVOK 17/12 Q1023
TAF LECO 162000Z 1621/1721 36009KT 9999 SCT045 TX23/1715Z TN16/1706Z 
     PROB40 
     TEMPO 1621/1706 3000 -RADZ BR BKN010 
     PROB40 
     TEMPO 1710/1721 01015G25KT
       
TAF LECV 161700Z 1618/1703 VRB05KT 9999 FEW045 
     TEMPO 1618/1620 FEW040TCU 
     PROB30 
     TEMPO 1618/1620 VRB15G25KT TS SHRA FEW040CB 
     PROB30 
     TEMPO 1620/1701 14010KT
       
LEDA 170200Z AUTO 27008KT CAVOK 19/17 Q1017
TAF LEDA 160800Z 1609/1709 10008KT 9999 SCT040 TX33/1614Z TN19/1705Z 
     BECMG 1609/1611 18010KT 
     PROB40 1617/1623 4000 TSRA SCT025CB BKN035 
     BECMG 1623/1701 27006KT
       
LEGE 170200Z 00000KT 9999 SCT060 20/19 Q1015
TAF LEGE 162300Z 1700/1724 VRB03KT 9999 SCT040 TX28/1713Z TN19/1705Z 
     BECMG 1709/1711 18010KT 
     TEMPO 1713/1717 32007KT 
     BECMG 1717/1719 VRB05KT 
     PROB30 
     TEMPO 1700/1711 FEW025CB SCT030 
     PROB40 
     TEMPO 1711/1718 3000 +TSRA SCT020CB BKN025
       
LEGR 170200Z AUTO 20004KT CAVOK 19/16 Q1018
TAF AMD LEGR 162232Z 1622/1721 VRB03KT CAVOK TX33/1713Z TN19/1706Z 
     PROB40 
     TEMPO 1712/1720 TSRA FEW040TCU FEW045CB 
     PROB40 
     TEMPO 1712/1718 06015G25KT
       
TAF LEGT 161700Z 1618/1703 VRB05KT 9999 FEW045 
     TEMPO 1618/1620 FEW040TCU 
     PROB30 
     TEMPO 1618/1620 VRB15G25KT TS SHRA FEW040CB 
     PROB30 
     TEMPO 1620/1701 14010KT
       
LEHC 170200Z AUTO 30006KT 9999 NCD 17/15 Q1018
TAF LEHC 160800Z 1609/1709 10010KT 9999 FEW040 TX32/1615Z TN17/1705Z 
     PROB40 
     TEMPO 1616/1622 3000 TSRA SCT030CB BKN040 
     BECMG 1623/1701 VRB04KT
       
LEIB 170200Z 14003KT 9999 FEW025 25/20 Q1015 NOSIG
TAF LEIB 162000Z 1621/1721 VRB04KT 9999 FEW020 SCT030 TX29/1712Z TN22/1705Z 
     TEMPO 1621/1721 SCT020TCU BKN040 
     PROB40 
     TEMPO 1700/1715 4000 TSRA SCT020CB BKN040
       
LEJR 170200Z AUTO VRB02KT 9999 NCD 17/15 Q1016
TAF LEJR 162300Z 1700/1724 VRB03KT CAVOK TX34/1714Z TN19/1706Z 
     BECMG 1712/1714 29010KT 
     PROB40 
     TEMPO 1714/1720 25015G25KT
       
LELC 170200Z AUTO 25005KT 220V280 CAVOK 24/19 Q1015
TAF LELC 162300Z 1700/1724 VRB03KT 9999 SCT015 TX28/1714Z TN24/1701Z 
     BECMG 1710/1712 09010KT 
     PROB40 
     TEMPO 1712/1720 TSRA FEW040TCU FEW045CB
       
LELL 170200Z AUTO 27005KT 9999 BKN070 23/18 Q1015
TAF LELL 161400Z 1615/1715 16010KT 9999 FEW035TCU SCT050 TX27/1713Z TN18/1705Z 
     TEMPO 1615/1715 FEW025CB SCT035 
     PROB30 
     TEMPO 1615/1621 4000 TSRA SCT020CB BKN040 
     PROB40 
     TEMPO 1705/1715 4000 TSRA FEW030CB BKN040 
     BECMG 1618/1620 27005KT
       
LELN 170200Z AUTO 33002KT 9999 NCD 09/07 Q1021
TAF LELN 161700Z 1618/1703 01010KT CAVOK
       
LELO 170200Z AUTO 30007KT 270V330 9999 OVC060 20/13 Q1020
TAF LELO 161700Z 1618/1703 32010KT 9999 SCT040
       
LEMD 170200Z 36003KT 330V030 CAVOK 22/13 Q1017 NOSIG
TAF LEMD 162300Z 1700/1806 VRB05KT CAVOK TX32/1715Z TN16/1806Z 
     TEMPO 1702/1709 02010KT 
     PROB40 
     TEMPO 1712/1718 FEW040TCU 
     BECMG 1719/1721 04010KT
       
LEMG 170200Z 28008KT CAVOK 24/19 Q1015 NOSIG
TAF LEMG 162300Z 1700/1724 VRB03KT CAVOK TX29/1711Z TN21/1705Z 
     BECMG 1710/1712 14009KT 
     PROB40 
     TEMPO 1712/1720 SHRA FEW040TCU FEW045CB
       
LEMH 170200Z AUTO 01003KT 9999 NCD 22/19 Q1015
TAF LEMH 162000Z 1621/1721 VRB04KT 9999 SCT020 TX29/1712Z TN21/1705Z 
     TEMPO 1621/1721 FEW030TCU SCT035 
     PROB40 
     TEMPO 1706/1718 4000 TSRA SCT020CB BKN040
       
TAF LEMO 162300Z 1700/1709 22005KT CAVOK
       
LEPA 170200Z VRB01KT 9999 FEW025 21/20 Q1015 NOSIG
TAF LEPA 162300Z 1700/1724 VRB04KT 9999 SCT025 TX29/1712Z TN20/1705Z 
     BECMG 1708/1710 22010KT 
     BECMG 1716/1718 07007KT 
     TEMPO 1700/1724 SCT020CB 
     PROB30 
     TEMPO 1700/1710 4000 TSRA SCT020CB 
     PROB40 
     TEMPO 1710/1716 VRB12G22KT 3000 +TSRA SCT020CB BKN025
       
LEPP 170200Z AUTO 33009KT 9999 OVC044 18/14 Q1021
TAF LEPP 162000Z 1621/1721 33009KT 9999 SCT035 TX24/1715Z TN13/1706Z 
     PROB30 
     TEMPO 1702/1707 0800 BCFG BKN002 
     PROB30 
     TEMPO 1707/1712 3000 -RA BR BKN010 
     TEMPO 1709/1715 33015G25KT
       
LERS 170200Z AUTO 28003KT 240V320 CAVOK 24/21 Q1015
TAF LERS 162000Z 1621/1721 VRB04KT 9999 SCT025 TX29/1713Z TN19/1705Z 
     TEMPO 1621/1721 FEW025TCU SCT035 
     PROB30 
     TEMPO 1621/1702 4000 TSRA SCT020CB BKN040 
     TEMPO 1710/1718 06010KT 
     PROB40 
     TEMPO 1711/1718 4000 TSRA SCT020CB BKN040
       
LERT 170200Z VRB02KT CAVOK 19/17 Q1016 NOSIG
TAF LERT 162300Z 1700/1709 VRB03KT CAVOK
       
LESA 170200Z AUTO 03006KT 360V070 9999 NCD 16/13 Q1019
TAF LESA 162300Z 1700/1724 03008KT CAVOK TX30/1715Z TN11/1706Z 
     PROB30 
     TEMPO 1712/1718 FEW040TCU
       
LESO 170200Z AUTO 23006KT 200V260 9999 FEW023/// SCT068/// 20/18 Q1020
TAF LESO 162300Z 1700/1724 25005KT 9999 FEW015 BKN023 TX24/1715Z TN19/1705Z 
     PROB40 
     TEMPO 1700/1712 3000 RADZ BR BKN010 
     BECMG 1710/1712 01010KT
       
LEST 170200Z 03013KT 350V070 9999 FEW007 BKN014 15/13 Q1022 TEMPO 3000 -DZ BKN005
TAF LEST 162300Z 1700/1724 02009KT 9999 SCT020 TX23/1715Z TN13/1705Z 
     TEMPO 1700/1708 BKN010 
     PROB40 
     TEMPO 1700/1706 3000 -DZ BKN005 
     TEMPO 1710/1720 03015G25KT
       
TAF LESU 161400Z 1615/1715 21010KT 9999 SCT040 TX26/1714Z TN12/1705Z 
     TEMPO 1615/1715 FEW030CB BKN045 
     PROB40 
     TEMPO 1615/1623 4000 TSRA SCT040CB BKN050 
     BECMG 1622/1624 VRB04KT 
     PROB40 
     TEMPO 1704/1715 4000 TSRA SCT035CB BKN040
       
LETL 170200Z AUTO 32007KT 7000 RA ////// 16/15 Q1021
LETO 170200Z 02008KT CAVOK 20/13 Q1017 NOSIG
TAF LETO 162300Z 1700/1724 VRB05KT CAVOK TX32/1715Z TN19/1706Z 
     TEMPO 1702/1709 02010KT 
     PROB40 
     TEMPO 1712/1718 FEW040TCU 
     BECMG 1719/1721 04010KT
       
LEVC 170200Z 32006KT 290V350 9999 FEW050 25/21 Q1015 NOSIG
TAF LEVC 162300Z 1700/1724 VRB03KT 9999 SCT025 TX29/1712Z TN23/1705Z 
     BECMG 1710/1712 11010KT 
     BECMG 1718/1720 VRB03KT 
     TEMPO 1700/1724 FEW020CB SCT025 
     PROB30 
     TEMPO 1700/1709 4000 TSRA FEW020CB BKN030 
     PROB40 
     TEMPO 1717/1722 3000 +TSRA SCT020CB BKN025
       
TAF LEVD 162300Z 1700/1724 05012KT CAVOK TX26/1715Z TN12/1706Z 
     PROB30 
     TEMPO 1712/1718 FEW040TCU
       
TAF LEVS 161700Z 1618/1703 VRB05KT 9999 FEW045 
     TEMPO 1618/1620 FEW040TCU 
     PROB30 
     TEMPO 1618/1620 VRB15G25KT TS SHRA FEW040CB 
     PROB30 
     TEMPO 1620/1701 14010KT
       
LEVT 170200Z 14002KT 9999 FEW020 OVC055 15/14 Q1021
TAF LEVT 162300Z 1700/1724 33006KT 9999 FEW015 BKN030 TX22/1714Z TN12/1705Z 
     PROB40 
     TEMPO 1700/1718 3000 -RA BR BKN010 
     PROB40 
     TEMPO 1704/1710 1400 RADZ BKN005 
     TEMPO 1711/1718 03013KT
       
LEVX 170200Z 02011KT 340V070 9999 FEW025 18/15 Q1020 NOSIG
TAF LEVX 162300Z 1700/1724 01009KT 9999 FEW015 SCT025 TX27/1715Z TN16/1705Z 
     PROB40 
     TEMPO 1712/1720 02015G25KT
       
LEXJ 170200Z AUTO 23004KT 200V260 2100 1400W +RA BR BKN006/// OVC015/// 19/19 Q1020
TAF LEXJ 162000Z 1621/1721 27005KT 9999 SCT015 BKN040 TX23/1715Z TN18/1706Z 
     PROB40 
     TEMPO 1621/1709 3000 -RADZ BKN010 
     PROB40 
     TEMPO 1700/1707 3000 RADZ BR BKN005 
     TEMPO 1711/1715 02010KT
       
LEZG 170200Z 30014KT 9999 FEW050 21/16 1018
TAF LEZG 162300Z 1700/1724 30016KT 9999 FEW040 TX30/1714Z TN16/1705Z 
     TEMPO 1707/1724 30020G34KT 
     PROB30 
     TEMPO 1714/1719 32026G40KT
       
LEZL 170200Z 19004KT 170V260 CAVOK 21/17 Q1016 NOSIG
TAF LEZL 162000Z 1621/1721 23007KT CAVOK TX36/1716Z TN20/1706Z
       
LEJR 170200Z AUTO VRB02KT 9999 NCD 17/15 Q1016
TAF LEJR 162300Z 1700/1724 VRB03KT CAVOK TX34/1714Z TN19/1706Z 
     BECMG 1712/1714 29010KT 
     PROB40 
     TEMPO 1714/1720 25015G25KT
       
GCGM 170200Z AUTO 29007KT 250V320 9999 NCD 21/16 Q1019 RMK R09/28004KT 260V320 ARP/31005KT
GCLA 170200Z AUTO 36014KT 9999 FEW030/// BKN038/// 23/16 Q1021
TAF GCLA 162000Z 1621/1721 02014KT 9999 SCT030 TX25/1714Z TN20/1705Z
       
GCRR 170200Z AUTO 02009KT 350V060 9999 FEW018/// 21/18 Q1018
TAF GCRR 162000Z 1621/1721 36016KT 9999 BKN025 TX29/1714Z TN21/1705Z 
     PROB40 
     TEMPO 1711/1718 01016G26KT
       
LELN 170200Z AUTO 33002KT 9999 NCD 09/07 Q1021
TAF LELN 161700Z 1618/1703 01010KT CAVOK
       
LEMG 170200Z 28008KT CAVOK 24/19 Q1015 NOSIG
TAF LEMG 162300Z 1700/1724 VRB03KT CAVOK TX29/1711Z TN21/1705Z 
     BECMG 1710/1712 14009KT 
     PROB40 
     TEMPO 1712/1720 SHRA FEW040TCU FEW045CB
       
GEML 170200Z AUTO 29003KT 250V330 CAVOK 23/19 Q1015
TAF GEML 162000Z 1621/1721 09005KT 9999 SCT015 TX29/1714Z TN23/1706Z 
     PROB40 
     TEMPO 1621/1709 4000 BR BKN009
       
LEMH 170200Z AUTO 01003KT 9999 NCD 22/19 Q1015
TAF LEMH 162000Z 1621/1721 VRB04KT 9999 SCT020 TX29/1712Z TN21/1705Z 
     TEMPO 1621/1721 FEW030TCU SCT035 
     PROB40 
     TEMPO 1706/1718 4000 TSRA SCT020CB BKN040
       
LEAB 170200Z 23003KT CAVOK 20/15 Q1018 NOSIG
TAF LEAB 162300Z 1700/1709 VRB05KT CAVOK
       
LEAL 170200Z 29004KT 9999 FEW022 23/19 Q1015 NOSIG
TAF LEAL 162300Z 1700/1724 29006KT 9999 SCT025 TX29/1712Z TN22/1705Z 
     BECMG 1708/1710 09010KT 
     BECMG 1718/1721 32004KT 
     PROB40 
     TEMPO 1700/1724 4000 TSRA FEW020CB SCT025 
     PROB30 
     TEMPO 1700/1722 3000 +TSRA SCT020CB BKN025
       
LEAM 170200Z AUTO 12003KT 9999 NCD 24/22 Q1015
TAF AMD LEAM 162232Z 1622/1721 23005KT CAVOK TX28/1714Z TN22/1706Z 
     PROB40 
     TEMPO 1712/1720 SHRA FEW040TCU FEW045CB 
     PROB40 
     TEMPO 1712/1718 33015G25KT
       
LEAO 162100Z 20002KT 9999 FEW040 21/13 Q1017
TAF LEAO 161700Z 1618/1703 VRB05KT 9999 FEW040 
     TEMPO 1618/1620 FEW040TCU 
     PROB40 
     TEMPO 1618/1620 VRB15G25KT TS SHRA SCT040CB
       
LEAS 170200Z AUTO 02003KT 300V100 7000 1800W BKN019/// BKN026/// OVC033/// 18/16 Q1022
TAF LEAS 162000Z 1621/1721 36006KT 9999 FEW015 BKN040 TX21/1715Z TN18/1705Z 
     PROB40 
     TEMPO 1621/1709 3000 -RADZ BR BKN010 
     PROB40 
     TEMPO 1621/1703 1400 RADZ BKN004 
     TEMPO 1711/1720 06010KT
       
LEBA 170200Z AUTO 21004KT 170V260 CAVOK 22/15 Q1016
TAF LEBA 161700Z 1618/1703 24009KT CAVOK
       
LEBB 170200Z AUTO VRB02KT 7000 -RA SCT026/// BKN032/// BKN038/// 19/19 Q1020
TAF LEBB 162300Z 1700/1724 VRB04KT 9999 FEW015 BKN030 TX23/1714Z TN17/1705Z 
     PROB40 
     TEMPO 1700/1709 3000 RADZ BR BKN010 
     BECMG 1708/1712 34008KT
       
LEBG 170200Z AUTO 02011KT 9999 OVC014/// 15/12 Q1022
TAF LEBG 161700Z 1618/1703 03012KT 9999 FEW040 
     TEMPO 1618/1621 03018G28KT 
     PROB30 
     TEMPO 1621/1703 BKN009
       
LEBL 170200Z 33007KT 9999 FEW020 24/18 Q1015 NOSIG
TAF LEBL 162300Z 1700/1724 34006KT 9999 SCT025 TX28/1712Z TN21/1705Z 
     BECMG 1707/1709 18010KT 
     BECMG 1717/1719 33007KT 
     TEMPO 1700/1724 4000 TSRA SCT020CB BKN025 
     PROB30 
     TEMPO 1700/1724 VRB12G24KT 3000 +TSRA SCT020CB BKN025
       
LEBR 170200Z AUTO 31014KT 9999 BKN065 20/14 Q1019
LEBT 170200Z AUTO 35002KT 9999 SCT044 24/20 Q1016
TAF LEBZ 162300Z 1700/1724 27005KT CAVOK TX35/1716Z TN19/1706Z
       
LECH 170200Z AUTO 01007KT 330V050 CAVOK 22/15 Q1017
LECO 170200Z AUTO 02005KT 340V060 CAVOK 17/12 Q1023
TAF LECO 162000Z 1621/1721 36009KT 9999 SCT045 TX23/1715Z TN16/1706Z 
     PROB40 
     TEMPO 1621/1706 3000 -RADZ BR BKN010 
     PROB40 
     TEMPO 1710/1721 01015G25KT
       
TAF LECV 161700Z 1618/1703 VRB05KT 9999 FEW045 
     TEMPO 1618/1620 FEW040TCU 
     PROB30 
     TEMPO 1618/1620 VRB15G25KT TS SHRA FEW040CB 
     PROB30 
     TEMPO 1620/1701 14010KT
       
LEDA 170200Z AUTO 27008KT CAVOK 19/17 Q1017
TAF LEDA 160800Z 1609/1709 10008KT 9999 SCT040 TX33/1614Z TN19/1705Z 
     BECMG 1609/1611 18010KT 
     PROB40 1617/1623 4000 TSRA SCT025CB BKN035 
     BECMG 1623/1701 27006KT
       
LEGE 170200Z 00000KT 9999 SCT060 20/19 Q1015
TAF LEGE 162300Z 1700/1724 VRB03KT 9999 SCT040 TX28/1713Z TN19/1705Z 
     BECMG 1709/1711 18010KT 
     TEMPO 1713/1717 32007KT 
     BECMG 1717/1719 VRB05KT 
     PROB30 
     TEMPO 1700/1711 FEW025CB SCT030 
     PROB40 
     TEMPO 1711/1718 3000 +TSRA SCT020CB BKN025
       
LEGR 170200Z AUTO 20004KT CAVOK 19/16 Q1018
TAF AMD LEGR 162232Z 1622/1721 VRB03KT CAVOK TX33/1713Z TN19/1706Z 
     PROB40 
     TEMPO 1712/1720 TSRA FEW040TCU FEW045CB 
     PROB40 
     TEMPO 1712/1718 06015G25KT
       
TAF LEGT 161700Z 1618/1703 VRB05KT 9999 FEW045 
     TEMPO 1618/1620 FEW040TCU 
     PROB30 
     TEMPO 1618/1620 VRB15G25KT TS SHRA FEW040CB 
     PROB30 
     TEMPO 1620/1701 14010KT
       
LEHC 170200Z AUTO 30006KT 9999 NCD 17/15 Q1018
TAF LEHC 160800Z 1609/1709 10010KT 9999 FEW040 TX32/1615Z TN17/1705Z 
     PROB40 
     TEMPO 1616/1622 3000 TSRA SCT030CB BKN040 
     BECMG 1623/1701 VRB04KT
       
LEIB 170200Z 14003KT 9999 FEW025 25/20 Q1015 NOSIG
TAF LEIB 162000Z 1621/1721 VRB04KT 9999 FEW020 SCT030 TX29/1712Z TN22/1705Z 
     TEMPO 1621/1721 SCT020TCU BKN040 
     PROB40 
     TEMPO 1700/1715 4000 TSRA SCT020CB BKN040
       
LEJR 170200Z AUTO VRB02KT 9999 NCD 17/15 Q1016
TAF LEJR 162300Z 1700/1724 VRB03KT CAVOK TX34/1714Z TN19/1706Z 
     BECMG 1712/1714 29010KT 
     PROB40 
     TEMPO 1714/1720 25015G25KT
       
LELC 170200Z AUTO 25005KT 220V280 CAVOK 24/19 Q1015
TAF LELC 162300Z 1700/1724 VRB03KT 9999 SCT015 TX28/1714Z TN24/1701Z 
     BECMG 1710/1712 09010KT 
     PROB40 
     TEMPO 1712/1720 TSRA FEW040TCU FEW045CB
       
LELL 170200Z AUTO 27005KT 9999 BKN070 23/18 Q1015
TAF LELL 161400Z 1615/1715 16010KT 9999 FEW035TCU SCT050 TX27/1713Z TN18/1705Z 
     TEMPO 1615/1715 FEW025CB SCT035 
     PROB30 
     TEMPO 1615/1621 4000 TSRA SCT020CB BKN040 
     PROB40 
     TEMPO 1705/1715 4000 TSRA FEW030CB BKN040 
     BECMG 1618/1620 27005KT
       
LELN 170200Z AUTO 33002KT 9999 NCD 09/07 Q1021
TAF LELN 161700Z 1618/1703 01010KT CAVOK
       
LELO 170200Z AUTO 30007KT 270V330 9999 OVC060 20/13 Q1020
TAF LELO 161700Z 1618/1703 32010KT 9999 SCT040
       
LEMD 170200Z 36003KT 330V030 CAVOK 22/13 Q1017 NOSIG
TAF LEMD 162300Z 1700/1806 VRB05KT CAVOK TX32/1715Z TN16/1806Z 
     TEMPO 1702/1709 02010KT 
     PROB40 
     TEMPO 1712/1718 FEW040TCU 
     BECMG 1719/1721 04010KT
       
LEMG 170200Z 28008KT CAVOK 24/19 Q1015 NOSIG
TAF LEMG 162300Z 1700/1724 VRB03KT CAVOK TX29/1711Z TN21/1705Z 
     BECMG 1710/1712 14009KT 
     PROB40 
     TEMPO 1712/1720 SHRA FEW040TCU FEW045CB
       
LEMH 170200Z AUTO 01003KT 9999 NCD 22/19 Q1015
TAF LEMH 162000Z 1621/1721 VRB04KT 9999 SCT020 TX29/1712Z TN21/1705Z 
     TEMPO 1621/1721 FEW030TCU SCT035 
     PROB40 
     TEMPO 1706/1718 4000 TSRA SCT020CB BKN040
       
TAF LEMO 162300Z 1700/1709 22005KT CAVOK
       
LEPA 170200Z VRB01KT 9999 FEW025 21/20 Q1015 NOSIG
TAF LEPA 162300Z 1700/1724 VRB04KT 9999 SCT025 TX29/1712Z TN20/1705Z 
     BECMG 1708/1710 22010KT 
     BECMG 1716/1718 07007KT 
     TEMPO 1700/1724 SCT020CB 
     PROB30 
     TEMPO 1700/1710 4000 TSRA SCT020CB 
     PROB40 
     TEMPO 1710/1716 VRB12G22KT 3000 +TSRA SCT020CB BKN025
       
LEPP 170200Z AUTO 33009KT 9999 OVC044 18/14 Q1021
TAF LEPP 162000Z 1621/1721 33009KT 9999 SCT035 TX24/1715Z TN13/1706Z 
     PROB30 
     TEMPO 1702/1707 0800 BCFG BKN002 
     PROB30 
     TEMPO 1707/1712 3000 -RA BR BKN010 
     TEMPO 1709/1715 33015G25KT
       
LERS 170200Z AUTO 28003KT 240V320 CAVOK 24/21 Q1015
TAF LERS 162000Z 1621/1721 VRB04KT 9999 SCT025 TX29/1713Z TN19/1705Z 
     TEMPO 1621/1721 FEW025TCU SCT035 
     PROB30 
     TEMPO 1621/1702 4000 TSRA SCT020CB BKN040 
     TEMPO 1710/1718 06010KT 
     PROB40 
     TEMPO 1711/1718 4000 TSRA SCT020CB BKN040
       
LERT 170200Z VRB02KT CAVOK 19/17 Q1016 NOSIG
TAF LERT 162300Z 1700/1709 VRB03KT CAVOK
       
LESA 170200Z AUTO 03006KT 360V070 9999 NCD 16/13 Q1019
TAF LESA 162300Z 1700/1724 03008KT CAVOK TX30/1715Z TN11/1706Z 
     PROB30 
     TEMPO 1712/1718 FEW040TCU
       
LESO 170200Z AUTO 23006KT 200V260 9999 FEW023/// SCT068/// 20/18 Q1020
TAF LESO 162300Z 1700/1724 25005KT 9999 FEW015 BKN023 TX24/1715Z TN19/1705Z 
     PROB40 
     TEMPO 1700/1712 3000 RADZ BR BKN010 
     BECMG 1710/1712 01010KT
       
LEST 170200Z 03013KT 350V070 9999 FEW007 BKN014 15/13 Q1022 TEMPO 3000 -DZ BKN005
TAF LEST 162300Z 1700/1724 02009KT 9999 SCT020 TX23/1715Z TN13/1705Z 
     TEMPO 1700/1708 BKN010 
     PROB40 
     TEMPO 1700/1706 3000 -DZ BKN005 
     TEMPO 1710/1720 03015G25KT
       
TAF LESU 161400Z 1615/1715 21010KT 9999 SCT040 TX26/1714Z TN12/1705Z 
     TEMPO 1615/1715 FEW030CB BKN045 
     PROB40 
     TEMPO 1615/1623 4000 TSRA SCT040CB BKN050 
     BECMG 1622/1624 VRB04KT 
     PROB40 
     TEMPO 1704/1715 4000 TSRA SCT035CB BKN040
       
LETL 170200Z AUTO 32007KT 7000 RA ////// 16/15 Q1021
LETO 170200Z 02008KT CAVOK 20/13 Q1017 NOSIG
TAF LETO 162300Z 1700/1724 VRB05KT CAVOK TX32/1715Z TN19/1706Z 
     TEMPO 1702/1709 02010KT 
     PROB40 
     TEMPO 1712/1718 FEW040TCU 
     BECMG 1719/1721 04010KT
       
LEVC 170200Z 32006KT 290V350 9999 FEW050 25/21 Q1015 NOSIG
TAF LEVC 162300Z 1700/1724 VRB03KT 9999 SCT025 TX29/1712Z TN23/1705Z 
     BECMG 1710/1712 11010KT 
     BECMG 1718/1720 VRB03KT 
     TEMPO 1700/1724 FEW020CB SCT025 
     PROB30 
     TEMPO 1700/1709 4000 TSRA FEW020CB BKN030 
     PROB40 
     TEMPO 1717/1722 3000 +TSRA SCT020CB BKN025
       
TAF LEVD 162300Z 1700/1724 05012KT CAVOK TX26/1715Z TN12/1706Z 
     PROB30 
     TEMPO 1712/1718 FEW040TCU
       
TAF LEVS 161700Z 1618/1703 VRB05KT 9999 FEW045 
     TEMPO 1618/1620 FEW040TCU 
     PROB30 
     TEMPO 1618/1620 VRB15G25KT TS SHRA FEW040CB 
     PROB30 
     TEMPO 1620/1701 14010KT
       
LEVT 170200Z 14002KT 9999 FEW020 OVC055 15/14 Q1021
TAF LEVT 162300Z 1700/1724 33006KT 9999 FEW015 BKN030 TX22/1714Z TN12/1705Z 
     PROB40 
     TEMPO 1700/1718 3000 -RA BR BKN010 
     PROB40 
     TEMPO 1704/1710 1400 RADZ BKN005 
     TEMPO 1711/1718 03013KT
       
LEVX 170200Z 02011KT 340V070 9999 FEW025 18/15 Q1020 NOSIG
TAF LEVX 162300Z 1700/1724 01009KT 9999 FEW015 SCT025 TX27/1715Z TN16/1705Z 
     PROB40 
     TEMPO 1712/1720 02015G25KT
       
LEXJ 170200Z AUTO 23004KT 200V260 2100 1400W +RA BR BKN006/// OVC015/// 19/19 Q1020
TAF LEXJ 162000Z 1621/1721 27005KT 9999 SCT015 BKN040 TX23/1715Z TN18/1706Z 
     PROB40 
     TEMPO 1621/1709 3000 -RADZ BKN010 
     PROB40 
     TEMPO 1700/1707 3000 RADZ BR BKN005 
     TEMPO 1711/1715 02010KT
       
LEZG 170200Z 30014KT 9999 FEW050 21/16 1018
TAF LEZG 162300Z 1700/1724 30016KT 9999 FEW040 TX30/1714Z TN16/1705Z 
     TEMPO 1707/1724 30020G34KT 
     PROB30 
     TEMPO 1714/1719 32026G40KT
       
LEZL 170200Z 19004KT 170V260 CAVOK 21/17 Q1016 NOSIG
TAF LEZL 162000Z 1621/1721 23007KT CAVOK TX36/1716Z TN20/1706Z
       
TAF LEMO 162300Z 1700/1709 22005KT CAVOK
       
LEPP 170200Z AUTO 33009KT 9999 OVC044 18/14 Q1021
TAF LEPP 162000Z 1621/1721 33009KT 9999 SCT035 TX24/1715Z TN13/1706Z 
     PROB30 
     TEMPO 1702/1707 0800 BCFG BKN002 
     PROB30 
     TEMPO 1707/1712 3000 -RA BR BKN010 
     TEMPO 1709/1715 33015G25KT
       
LERS 170200Z AUTO 28003KT 240V320 CAVOK 24/21 Q1015
TAF LERS 162000Z 1621/1721 VRB04KT 9999 SCT025 TX29/1713Z TN19/1705Z 
     TEMPO 1621/1721 FEW025TCU SCT035 
     PROB30 
     TEMPO 1621/1702 4000 TSRA SCT020CB BKN040 
     TEMPO 1710/1718 06010KT 
     PROB40 
     TEMPO 1711/1718 4000 TSRA SCT020CB BKN040
       
LERT 170200Z VRB02KT CAVOK 19/17 Q1016 NOSIG
TAF LERT 162300Z 1700/1709 VRB03KT CAVOK
       
LESA 170200Z AUTO 03006KT 360V070 9999 NCD 16/13 Q1019
TAF LESA 162300Z 1700/1724 03008KT CAVOK TX30/1715Z TN11/1706Z 
     PROB30 
     TEMPO 1712/1718 FEW040TCU
       
LESO 170200Z AUTO 23006KT 200V260 9999 FEW023/// SCT068/// 20/18 Q1020
TAF LESO 162300Z 1700/1724 25005KT 9999 FEW015 BKN023 TX24/1715Z TN19/1705Z 
     PROB40 
     TEMPO 1700/1712 3000 RADZ BR BKN010 
     BECMG 1710/1712 01010KT
       
LEXJ 170200Z AUTO 23004KT 200V260 2100 1400W +RA BR BKN006/// OVC015/// 19/19 Q1020
TAF LEXJ 162000Z 1621/1721 27005KT 9999 SCT015 BKN040 TX23/1715Z TN18/1706Z 
     PROB40 
     TEMPO 1621/1709 3000 -RADZ BKN010 
     PROB40 
     TEMPO 1700/1707 3000 RADZ BR BKN005 
     TEMPO 1711/1715 02010KT
       
LEST 170200Z 03013KT 350V070 9999 FEW007 BKN014 15/13 Q1022 TEMPO 3000 -DZ BKN005
TAF LEST 162300Z 1700/1724 02009KT 9999 SCT020 TX23/1715Z TN13/1705Z 
     TEMPO 1700/1708 BKN010 
     PROB40 
     TEMPO 1700/1706 3000 -DZ BKN005 
     TEMPO 1710/1720 03015G25KT
       
TAF LESU 161400Z 1615/1715 21010KT 9999 SCT040 TX26/1714Z TN12/1705Z 
     TEMPO 1615/1715 FEW030CB BKN045 
     PROB40 
     TEMPO 1615/1623 4000 TSRA SCT040CB BKN050 
     BECMG 1622/1624 VRB04KT 
     PROB40 
     TEMPO 1704/1715 4000 TSRA SCT035CB BKN040
       
LEZL 170200Z 19004KT 170V260 CAVOK 21/17 Q1016 NOSIG
TAF LEZL 162000Z 1621/1721 23007KT CAVOK TX36/1716Z TN20/1706Z
       
TAF LEBZ 162300Z 1700/1724 27005KT CAVOK TX35/1716Z TN19/1706Z
       
GCXO 170200Z AUTO 30021KT 9999 SCT003/// BKN007/// BKN015/// 17/17 Q1021
TAF AMD GCXO 162033Z 1621/1721 31018KT 9999 BKN015 TX24/1714Z TN17/1705Z 
     TEMPO 1621/1710 2000 DZRA BCFG BKN005 
     PROB40 
     TEMPO 1621/1710 0900 FG BKN001 
     PROB30 
     TEMPO 1621/1701 32018G28KT
       
GCTS 170200Z 07006KT 9999 SCT030 22/18 Q1018 NOSIG
TAF AMD GCTS 162252Z 1622/1721 03005KT 9999 BKN030 TX27/1714Z TN20/1705Z 
     TEMPO 1622/1624 08020KT 
     BECMG 1711/1713 10020KT
       
LETO 170200Z 02008KT CAVOK 20/13 Q1017 NOSIG
TAF LETO 162300Z 1700/1724 VRB05KT CAVOK TX32/1715Z TN19/1706Z 
     TEMPO 1702/1709 02010KT 
     PROB40 
     TEMPO 1712/1718 FEW040TCU 
     BECMG 1719/1721 04010KT
       
LEVC 170200Z 32006KT 290V350 9999 FEW050 25/21 Q1015 NOSIG
TAF LEVC 162300Z 1700/1724 VRB03KT 9999 SCT025 TX29/1712Z TN23/1705Z 
     BECMG 1710/1712 11010KT 
     BECMG 1718/1720 VRB03KT 
     TEMPO 1700/1724 FEW020CB SCT025 
     PROB30 
     TEMPO 1700/1709 4000 TSRA FEW020CB BKN030 
     PROB40 
     TEMPO 1717/1722 3000 +TSRA SCT020CB BKN025
       
TAF LEVD 162300Z 1700/1724 05012KT CAVOK TX26/1715Z TN12/1706Z 
     PROB30 
     TEMPO 1712/1718 FEW040TCU
       
LEVX 170200Z 02011KT 340V070 9999 FEW025 18/15 Q1020 NOSIG
TAF LEVX 162300Z 1700/1724 01009KT 9999 FEW015 SCT025 TX27/1715Z TN16/1705Z 
     PROB40 
     TEMPO 1712/1720 02015G25KT
       
LEVT 170200Z 14002KT 9999 FEW020 OVC055 15/14 Q1021
TAF LEVT 162300Z 1700/1724 33006KT 9999 FEW015 BKN030 TX22/1714Z TN12/1705Z 
     PROB40 
     TEMPO 1700/1718 3000 -RA BR BKN010 
     PROB40 
     TEMPO 1704/1710 1400 RADZ BKN005 
     TEMPO 1711/1718 03013KT
       
LEZG 170200Z 30014KT 9999 FEW050 21/16 1018
TAF LEZG 162300Z 1700/1724 30016KT 9999 FEW040 TX30/1714Z TN16/1705Z 
     TEMPO 1707/1724 30020G34KT 
     PROB30 
     TEMPO 1714/1719 32026G40KT